Hermiston, OR

6:27 PM PST on February 19, 2018 (GMT -0800)
Hermiston Municipal

Weather History for KHRI - June, 2013

Change the Weather History Date:

Saturday, June 22, 2013

  Actual Average Record
Temperature  
Mean Temperature 62 °F 68 °F  
Max Temperature 81 °F 83 °F 105 °F (1936)
Min Temperature 44 °F 52 °F 41 °F (1942)
Degree Days  
Heating Degree Days 2    
Growing Degree Days 12 (Base 50)    
Moisture  
Dew Point 46 °F    
Average Humidity 56    
Maximum Humidity 93    
Minimum Humidity 26    
Precipitation  
Precipitation 0.00 in 0.02 in 0.32 in (1937)
Month to date precipitation 0.60  
Year to date precipitation 5.93  
Sea Level Pressure  
Sea Level Pressure 29.98 in    
Wind  
Wind Speed 3 mph (ENE)    
Max Wind Speed 7 mph    
Max Gust Speed -    
Visibility 10 miles    
Events      
T = Trace of Precipitation, MM = Missing Value Source: NWS Daily Summary

Daily Weather History Graph

Daily Weather History Graph

Search for Another Location

Airport or City:

Trip Planner

Search our weather history database for the weather conditions in past years. The results will help you decide how hot, cold, wet, or windy it might be!

Date:

Astronomy

Jun. 22, 2013 Rise Set
Actual Time 5:07 AM PDT 8:51 PM PDT
Civil Twilight 4:28 AM PDT 9:29 PM PDT
Nautical Twilight 3:37 AM PDT 10:21 PM PDT
Astronomical Twilight 2:25 AM PDT 11:32 PM PDT
Moon 8:07 PM PDT (6/22) 4:28 AM PDT (6/22)
Length of Visible Light 17h 00m
Length of Day
15h 43m
Waxing Gibbous, 99% of the Moon is Illuminated
Jun 22
Waxing Gibbous
Jun 23
Full
Jun 29
Last Quarter
Jul 8
New
Jul 15
First Quarter

Hourly Weather History & Observations

Time (PDT) Temp. Windchill Dew Point Humidity Pressure Visibility Wind Dir Wind Speed Gust Speed Precip Events Conditions
12:53 AM 50.0 °F - 46.0 °F 86% 30.07 in 10.0 mi SE 3.5 mph - N/A   Clear
1:53 AM 46.9 °F - 44.1 °F 90% 30.07 in 10.0 mi Calm Calm - N/A   Partly Cloudy
2:53 AM 46.9 °F - 44.1 °F 90% 30.07 in 10.0 mi ESE 4.6 mph - N/A   Partly Cloudy
3:53 AM 46.9 °F - 44.1 °F 90% 30.06 in 10.0 mi SE 3.5 mph - N/A   Clear
4:53 AM 44.1 °F 40.8 °F 42.1 °F 93% 30.06 in 10.0 mi South 5.8 mph - N/A   Clear
5:53 AM 48.0 °F - 45.0 °F 89% 30.07 in 10.0 mi Calm Calm - N/A   Clear
6:53 AM 54.0 °F - 48.0 °F 80% 30.08 in 10.0 mi Calm Calm - N/A   Clear
7:53 AM 61.0 °F - 48.9 °F 64% 30.07 in 10.0 mi Calm Calm - N/A   Clear
8:53 AM 64.0 °F - 48.0 °F 56% 30.07 in 10.0 mi WNW 5.8 mph - N/A   Clear
9:53 AM 68.0 °F - 48.9 °F 50% 30.05 in 10.0 mi Variable 4.6 mph - N/A   Clear
10:53 AM 71.1 °F - 50.0 °F 47% 30.04 in 10.0 mi Variable 4.6 mph - N/A   Clear
11:53 AM 73.0 °F - 48.0 °F 41% 30.01 in 10.0 mi Variable 3.5 mph - N/A   Clear
12:53 PM 75.0 °F - 46.0 °F 36% 29.99 in 10.0 mi North 4.6 mph - N/A   Clear
1:53 PM 78.1 °F - 43.0 °F 29% 29.97 in 10.0 mi Variable 3.5 mph - N/A   Clear
2:53 PM 80.1 °F - 44.1 °F 28% 29.96 in 10.0 mi Variable 5.8 mph - N/A   Clear
3:53 PM 78.1 °F - 43.0 °F 29% 29.93 in 10.0 mi Variable 5.8 mph - N/A   Clear
4:53 PM 80.1 °F - 42.1 °F 26% 29.91 in 10.0 mi NNE 4.6 mph - N/A   Clear
5:53 PM 81.0 °F - 43.0 °F 26% 29.89 in 10.0 mi NE 6.9 mph - N/A   Clear
6:53 PM 79.0 °F - 42.1 °F 27% 29.87 in 10.0 mi North 5.8 mph - N/A   Clear
7:53 PM 77.0 °F - 43.0 °F 30% 29.87 in 10.0 mi NNE 3.5 mph - N/A   Clear
8:53 PM 68.0 °F - 46.9 °F 47% 29.86 in 10.0 mi Calm Calm - N/A   Clear
9:53 PM 61.0 °F - 51.1 °F 70% 29.86 in 10.0 mi NE 3.5 mph - N/A   Clear
10:53 PM 62.1 °F - 46.9 °F 58% 29.85 in 10.0 mi SE 4.6 mph - N/A   Clear
11:53 PM 57.0 °F - 46.0 °F 67% 29.85 in 10.0 mi Calm Calm - N/A   Clear